Debrecen, Hungary

1:36 AM CEST on September 26, 2016 (GMT +0200)
Debrecen

Weather History for LHDC - September, 2012

Change the Weather History Date:

Friday, September 14, 2012

  Actual Average Record
Temperature  
Mean Temperature 66 °F -  
Max Temperature 75 °F - - ()
Min Temperature 56 °F - - ()
Growing Degree Days 16 (Base 50)    
Moisture  
Dew Point 51 °F    
Average Humidity 56    
Maximum Humidity 77    
Minimum Humidity 36    
Precipitation  
Precipitation 0.00 in - - ()
Sea Level Pressure  
Sea Level Pressure 29.85 in    
Wind  
Wind Speed 10 mph ()    
Max Wind Speed 15 mph    
Max Gust Speed 25 mph    
Visibility 14.7 miles    
Events Rain    
T = Trace of Precipitation, MM = Missing Value Source: Averaged Metar Reports

Daily Weather History Graph

Daily Weather History Graph

Search for Another Location

Airport or City:

Trip Planner

Search our weather history database for the weather conditions in past years. The results will help you decide how hot, cold, wet, or windy it might be!

Date:

Astronomy

Sep. 14, 2012 Rise Set
Actual Time 6:09 AM CEST 6:47 PM CEST
Civil Twilight 5:38 AM CEST 7:18 PM CEST
Nautical Twilight 5:02 AM CEST 7:54 PM CEST
Astronomical Twilight 4:23 AM CEST 8:33 PM CEST
Moon 4:09 AM CEST (9/14) 5:35 PM CEST (9/14)
Length of Visible Light 13h 39m
Length of Day
12h 37m
Waning Crescent, 4% of the Moon is Illuminated
Sep 14
Waning Crescent
Sep 16
New
Sep 22
First Quarter
Sep 30
Full
Oct 8
Last Quarter

Hourly Weather History & Observations

Time (CEST) Temp. Dew Point Humidity Pressure Visibility Wind Dir Wind Speed Gust Speed Precip Events Conditions
2:00 AM 62 °F 53 °F 63% 29.83 in - North 11.2 mph - -  
4:45 AM 59.0 °F 50.0 °F 72% 29.86 in - NNE 12.7 mph - N/A   Clear
5:45 AM 57.2 °F 50.0 °F 77% 29.86 in - NNE 13.8 mph - N/A   Clear
6:15 AM 57.2 °F 50.0 °F 77% 29.86 in - NE 13.8 mph - N/A   Clear
6:45 AM 57.2 °F 50.0 °F 77% 29.86 in - NE 10.4 mph - N/A   Clear
7:00 AM - - N/A% - - NE 12.7 mph 24.2 mph N/A   Clear
7:15 AM 57.2 °F 50.0 °F 77% 29.86 in - NE 10.4 mph - N/A   Clear
7:45 AM 59.0 °F 50.0 °F 72% 29.86 in - NNE 10.4 mph - N/A   Clear
8:00 AM 59 °F 50 °F 64% 29.86 in 19 mi NNE 11.2 mph - -   Partly Cloudy
8:15 AM 60.8 °F 50.0 °F 68% 29.86 in - NNE 11.5 mph - N/A   Clear
8:45 AM 62.6 °F 50.0 °F 63% 29.86 in - NNE 15.0 mph - N/A   Clear
9:15 AM 64.4 °F 51.8 °F 64% 29.89 in - NNE 11.5 mph - N/A   Clear
9:45 AM 66.2 °F 51.8 °F 60% 29.89 in - NNE 13.8 mph - N/A   Clear
10:00 AM - - N/A% - - NNE 13.8 mph 25.3 mph N/A   Clear
10:15 AM 66.2 °F 51.8 °F 60% 29.89 in - NE 15.0 mph - N/A   Clear
10:45 AM 68.0 °F 51.8 °F 56% 29.86 in - NNE 12.7 mph - N/A   Clear
11:15 AM 69.8 °F 51.8 °F 53% 29.86 in - NNE 12.7 mph - N/A   Clear
11:45 AM 71.6 °F 51.8 °F 50% 29.86 in - NNE 12.7 mph - N/A   Clear
12:15 PM 73.4 °F 51.8 °F 47% 29.86 in - NNE 11.5 mph - N/A   Clear
12:45 PM 73.4 °F 50.0 °F 44% 29.86 in - NNE 10.4 mph - N/A   Clear
1:00 PM - - N/A% - - NNE 13.8 mph - N/A   Clear
1:15 PM 73.4 °F 50.0 °F 44% 29.86 in - NNE 10.4 mph - N/A   Clear
1:45 PM 75.2 °F 51.8 °F 44% 29.86 in - North 9.2 mph - N/A   Clear
2:00 PM 74 °F 52 °F 36% 29.83 in 25 mi North 8.9 mph - -   Partly Cloudy
2:15 PM 75.2 °F 51.8 °F 44% 29.83 in - North 9.2 mph - N/A   Clear
2:45 PM 73.4 °F 51.8 °F 47% 29.83 in - North 9.2 mph - N/A   Clear
3:15 PM 73.4 °F 51.8 °F 47% 29.83 in - North 9.2 mph - N/A   Clear
3:45 PM 73.4 °F 51.8 °F 47% 29.83 in - North 10.4 mph - N/A   Clear
4:00 PM - - N/A% - - North 9.2 mph - N/A Rain Rain
4:15 PM 71.6 °F 51.8 °F 50% 29.83 in - North 9.2 mph - N/A   Clear
4:45 PM 71.6 °F 51.8 °F 50% 29.83 in - North 6.9 mph - N/A   Clear
5:15 PM 71.6 °F 50.0 °F 46% 29.83 in - North 8.1 mph - N/A   Clear
5:45 PM 71.6 °F 50.0 °F 46% 29.83 in 6.2 mi North 8.1 mph - N/A   Overcast
6:45 PM 69.8 °F 50.0 °F 49% 29.80 in - NNE 9.2 mph - N/A   Clear
7:15 PM 68.0 °F 50.0 °F 52% 29.80 in - NNE 9.2 mph - N/A   Clear
7:45 PM 66.2 °F 51.8 °F 60% 29.80 in - NNE 9.2 mph - N/A   Clear
8:00 PM 67 °F 51 °F 46% 29.79 in 19 mi NNE 8.9 mph - -   Partly Cloudy
8:00 PM - - N/A% - - North - - N/A   Unknown